Notices

What's New in latest Release from April 7th, 2021:

- Updated Glossary, including Speed of Maximum Gust, and Total Hourly Precipitation

- Updated national and regional climate services offices contacts and prices information

- Addition of station inventory lists for 1981-2010, 1971-2000, and 1961-1990 Normals.

If you haven't already, please take our survey and provide feedback about our website: https://eccc.sondage-survey.ca/f/LanguageSelection.aspx?s=442ca660-fcf1-47c0-95a9-59707d6fd709

Hourly Data Report for July 18, 2020

TORONTO CITY
ONTARIO
Current Station Operator: ECCC - MSC

43°40'00.000" N
79°24'00.000" W
112.50 m
6158355
71508
XTO

Download Data

Hourly Data (July 2020)
Hourly Data Report for July 18, 2020
TIME
LST
Temp Definition
°C
Dew Point Definition
°C
Rel Hum Definition
%
Precip. Amount Definition
mm

Wind Dir Definition
10's deg

Wind Spd Definition
km/h
Visibility Definition
km
Stn Press Definition
kPa
Hmdx Definition


Wind Chill Definition


Weather Definition


00:00 23.9 18.1 70 0.0       100.43 30   LegendNANA
01:00 23.4 18.0 72 0.0       100.45 29   LegendNANA
02:00 22.7 17.8 74 0.0       100.40 29   LegendNANA
03:00 21.9 17.8 78 0.0       100.34 28   LegendNANA
04:00 21.5 17.7 79 0.0       100.40 27   LegendNANA
05:00 21.1 17.3 79 0.0       100.41 27   LegendNANA
06:00 22.3 17.7 75 0.0       100.45 28   LegendNANA
07:00 23.6 17.4 68 0.0       100.48 29   LegendNANA
08:00 26.0 17.6 60 0.0       100.42 32   LegendNANA
09:00 26.3 17.6 59 0.0       100.36 32   LegendNANA
10:00 27.0 17.3 55 0.0       100.36 32   LegendNANA
11:00 28.6 17.9 52 0.0       100.31 35   LegendNANA
12:00 30.1 17.3 46 0.0       100.29 36   LegendNANA
13:00 31.1 17.7 45 0.0       100.27 37   LegendNANA
14:00 30.9 16.8 43 0.0       100.24 36   LegendNANA
15:00 31.7 17.9 44 0.3       100.17 38   LegendNANA
16:00 31.6 17.1 42 0.3       100.12 37   LegendNANA
17:00 30.9 16.2 41 0.2       99.98 36   LegendNANA
18:00 30.4 15.7 41 0.2       99.92 35   LegendNANA
19:00 29.3 14.3 40 0.0       99.92 33   LegendNANA
20:00 27.4 15.3 47 0.0       99.92 32   LegendNANA
21:00 27.4 14.0 44 0.0       99.96 31   LegendNANA
22:00 26.8 15.9 51 0.0       99.97 31   LegendNANA
23:00 24.9 18.5 68 0.0       99.93 31   LegendNANA

Notes on Data Quality.

Legend

  • E = Estimated
  • M = Missing
  • NA = Not Available*
  • [empty] = Indicates an unobserved value
Date modified: